Lake Tarpon Weather Center

Moon Phase Calendar



Lake Tarpon Water Level
Online Cameras

 


      

Current Conditions in East Lake
8/14/2022 5:40:28 AM

78°F
Feels Like 79
Clouds
Humidity
86%
Pressure
29.91"
Wind
3.4 mph (S)
Dew Point
73°F
UV Index
0/10 (Low)
Visibility
6 mi

Hourly Forecast

Date & Time Sun, Aug 14
5:00 AM
Sun, Aug 14
6:00 AM
Sun, Aug 14
7:00 AM
Sun, Aug 14
8:00 AM
Sun, Aug 14
9:00 AM
Sun, Aug 14
10:00 AM
Sun, Aug 14
11:00 AM
Sun, Aug 14
12:00 PM
Sun, Aug 14
1:00 PM
Sun, Aug 14
2:00 PM
Sun, Aug 14
3:00 PM
Sun, Aug 14
4:00 PM
Sun, Aug 14
5:00 PM
Sun, Aug 14
6:00 PM
Sun, Aug 14
7:00 PM
Sun, Aug 14
8:00 PM
Sun, Aug 14
9:00 PM
Sun, Aug 14
10:00 PM
Sun, Aug 14
11:00 PM
Mon, Aug 15
12:00 AM
Mon, Aug 15
1:00 AM
Mon, Aug 15
2:00 AM
Mon, Aug 15
3:00 AM
Mon, Aug 15
4:00 AM
Mon, Aug 15
5:00 AM
Mon, Aug 15
6:00 AM
Mon, Aug 15
7:00 AM
Mon, Aug 15
8:00 AM
Mon, Aug 15
9:00 AM
Mon, Aug 15
10:00 AM
Mon, Aug 15
11:00 AM
Mon, Aug 15
12:00 PM
Mon, Aug 15
1:00 PM
Mon, Aug 15
2:00 PM
Mon, Aug 15
3:00 PM
Mon, Aug 15
4:00 PM
Mon, Aug 15
5:00 PM
Mon, Aug 15
6:00 PM
Mon, Aug 15
7:00 PM
Mon, Aug 15
8:00 PM
Mon, Aug 15
9:00 PM
Mon, Aug 15
10:00 PM
Mon, Aug 15
11:00 PM
Tue, Aug 16
12:00 AM
Tue, Aug 16
1:00 AM
Tue, Aug 16
2:00 AM
Tue, Aug 16
3:00 AM
Tue, Aug 16
4:00 AM
Condition
Clouds

Clouds

Clouds

Clouds

Rain

Rain

Rain

Rain

Rain

Rain

Clouds

Clouds

Clouds

Clouds

Clouds

Clouds

Clouds

Clouds

Clouds

Clouds

Clouds

Clouds

Clouds

Clouds

Rain

Clouds

Rain

Rain

Rain

Rain

Rain

Rain

Rain

Rain

Clouds

Clouds

Clouds

Clouds

Clouds

Clouds

Clear

Clear

Clear

Clear

Clear

Clear

Clear

Clear
Temperature 78°F78°F78°F79°F80°F82°F84°F85°F86°F86°F87°F87°F86°F86°F85°F84°F84°F84°F84°F83°F83°F83°F82°F82°F81°F81°F80°F80°F81°F82°F85°F86°F87°F86°F86°F87°F87°F86°F85°F85°F84°F84°F84°F84°F83°F83°F83°F83°F
Feels Like 80°F79°F80°F79°F84°F87°F89°F90°F91°F91°F91°F91°F91°F90°F89°F89°F88°F88°F88°F87°F87°F87°F86°F86°F85°F85°F83°F80°F84°F86°F89°F90°F91°F91°F91°F91°F91°F91°F90°F89°F89°F89°F88°F88°F88°F88°F88°F87°F
Cloudiness 63%75%63%53%55%50%63%72%78%80%73%86%91%93%94%95%69%52%36%28%28%28%67%41%33%27%22%19%36%38%32%24%21%20%52%31%22%17%14%12%0%1%2%1%1%1%0%0%
Visibility 6 mi6 mi6 mi6 mi6 mi6 mi6 mi6 mi6 mi6 mi6 mi6 mi6 mi6 mi6 mi6 mi6 mi6 mi6 mi6 mi6 mi6 mi6 mi6 mi6 mi6 mi6 mi6 mi6 mi6 mi6 mi6 mi6 mi6 mi6 mi6 mi6 mi6 mi6 mi6 mi6 mi6 mi6 mi6 mi6 mi6 mi6 mi6 mi
Precipitation 35%35%33%32%29%33%61%77%85%89%27%25%25%21%17%17%2%4%4%4%4%4%7%11%27%33%44%48%61%60%62%70%70%74%30%26%22%16%15%15%0%2%0%0%0%0%0%0%
Humidity 82%86%83%79%75%70%63%61%60%59%57%57%58%59%60%62%63%63%63%64%65%66%66%67%68%68%72%74%72%67%61%58%57%58%58%57%57%59%60%62%63%64%64%65%66%67%68%68%
Dew Point 72°F73°F73°F72°F72°F71°F70°F70°F70°F70°F70°F69°F69°F70°F70°F70°F70°F70°F70°F70°F70°F70°F70°F70°F70°F70°F70°F71°F71°F70°F70°F69°F70°F70°F70°F70°F70°F70°F70°F70°F70°F70°F70°F71°F71°F71°F71°F71°F
Pressure 29.91"29.91"29.91"29.94"29.94"29.97"30"30"30"30"29.97"29.97"29.94"29.94"29.91"29.91"29.94"29.97"29.97"29.97"29.94"29.94"29.91"29.91"29.91"29.91"29.91"29.94"29.94"29.94"29.97"29.97"29.94"29.94"29.94"29.91"29.91"29.91"29.91"29.91"29.91"29.94"29.94"29.94"29.94"29.91"29.91"29.91"
Wind Speed 3.2 mph3.2 mph2.8 mph2 mph2.4 mph2.6 mph4.4 mph6.4 mph8.8 mph10.3 mph10.9 mph11.9 mph12.4 mph11.5 mph11.2 mph10.6 mph8.5 mph6.7 mph5.3 mph5 mph4.8 mph4.2 mph2.6 mph1.2 mph1.2 mph1.2 mph2.6 mph3.7 mph4.6 mph4.1 mph4.9 mph5.4 mph6.4 mph8.9 mph10.8 mph11.5 mph12.4 mph11.9 mph11.3 mph10.8 mph9.7 mph8.1 mph7.1 mph8.1 mph8 mph7.7 mph6.4 mph4.7 mph
Wind
Direction
356°
N
356°
N

N
22°
NNE
25°
NNE
343°
NNW
313°
NW
303°
WNW
294°
WNW
288°
WNW
287°
WNW
289°
WNW
285°
WNW
286°
WNW
291°
WNW
293°
WNW
291°
WNW
290°
WNW
301°
WNW
310°
NW
326°
NW
336°
NNW
347°
NNW
32°
NNE
77°
ENE
75°
ENE
75°
ENE
84°
E
92°
E
131°
SE
174°
S
212°
SSW
248°
WSW
258°
WSW
256°
WSW
254°
WSW
256°
WSW
257°
WSW
257°
WSW
260°
W
264°
W
263°
W
255°
WSW
252°
WSW
262°
W
256°
WSW
262°
W
267°
W

Daily Forecast

Date High Low Precip. Humidity
Today
Aug 14

Rain
87 °F
78 °F
89%
60%
Monday
Aug 15

Rain
87 °F
80 °F
74%
57%
Tuesday
Aug 16

Clouds
87 °F
83 °F
2%
59%
Wednesday
Aug 17

Clouds
88 °F
83 °F
0%
59%
Thursday
Aug 18

Clear
87 °F
83 °F
12%
58%
Friday
Aug 19

Clear
88 °F
83 °F
11%
56%
Saturday
Aug 20

Rain
87 °F
79 °F
72%
62%
Sunday
Aug 21

Rain
90 °F
77 °F
90%
48%
Monday
Aug 22

Rain
90 °F
77 °F
100%
50%
Tuesday
Aug 23

Rain
88 °F
78 °F
100%
56%
Wednesday
Aug 24

Rain
89 °F
80 °F
100%
59%
Thursday
Aug 25

Rain
89 °F
80 °F
100%
56%
Friday
Aug 26

Rain
90 °F
81 °F
100%
55%
Saturday
Aug 27

Rain
91 °F
81 °F
95%
49%
Sunday
Aug 28

Rain
91 °F
81 °F
90%
49%
Monday
Aug 29

Rain
90 °F
80 °F
98%
50%

Temperature 8-14 Day Outlook



Precipitation 8-14 Day Outlook




Quick Links
Lake Tarpon News
Lake Tarpon Photos
Lake Tarpon Videos




About Us
Contact Us
Site Map
Search Site
Advertise With Us
   
Tarpon.LakesOnline.com
THE LAKE TARPON WEBSITE

Copyright 2022, Lakes Online
Privacy    |    Legal